Regional Weather Roundup
Issued by NWS

Home | Current Version | Previous Version | Graphics & Text | Print | Product List | Glossary Off
Versions: 1 2 3 4 5 6 7 8 9 10 11 12 13 14 15 16 17 18 19 20 21 22 23 24 25 26 27 28 29 30 31 32 33 34 35 36 37 38 39 40 41 42 43 44 45 46 47 48 49 50

797
ASUS43 KMKX 252300
RWRWI

WISCONSIN REGIONAL WEATHER ROUNDUP
NATIONAL WEATHER SERVICE MILWAUKEE/SULLIVAN WI
600 PM CDT WED MAY 25 2016

NOTE: "FAIR" INDICATES FEW OR NO CLOUDS BELOW 12,000 FEET WITH NO
SIGNIFICANT WEATHER AND/OR OBSTRUCTIONS TO VISIBILITY.

WIZ001-002-006>008-014>016-023>028-260000-
NORTHWEST WISCONSIN

CITY           SKY/WX    TMP DP  RH WIND       PRES   REMARKS
SUPERIOR ARPT  RAIN      45  44  98 NE17G24   29.95F
ASHLAND        HVY RAIN  49  49 100 MISG      29.98R FOG
HAYWARD        HVY RAIN  55  53  93 NE17      29.90F FOG
SIREN          CLOUDY    60  58  94 NE8G17    29.86R
CUMBERLAND     RAIN      63  61  94 E12       29.85S
RICE LAKE      HVY RAIN  63  61  91 E5        29.86S
CHETEK         RAIN      63  63  97 N3        29.84F
LADYSMITH      RAIN      66  65  95 CALM      29.87S
EAU CLAIRE     LGT RAIN  65  64  97 S3        29.81F
MENOMONIE      CLOUDY    68  67  94 E3        29.82S
NEW RICHMOND   NOT AVBL
OSCEOLA        CLOUDY    72  62  71 SW5       29.84S
$$

WIZ003>005-009-010-017-018-260000-
NORTH CENTRAL WISCONSIN

CITY           SKY/WX    TMP DP  RH WIND       PRES   REMARKS
MANITOWISH WTR NOT AVBL
ARBOR VITAE    RAIN      67  60  77 SE13      29.92R
WOODRUFF       RAIN      67  60  77 SE13      29.92R
RHINELANDER    RAIN      65  60  84 E9        29.90F
EAGLE RIVER      N/A     71  51  49 SE12G20   29.92S
LAND O LAKES   CLOUDY    71  55  57 E9        29.93F
PHILLIPS       CLOUDY    65  62  90 E5        29.86F
TOMAHAWK       LGT RAIN  64  61  91 SE8       29.87F
MEDFORD        TSTM      64  64  97 E15       29.84S
MERRILL        CLOUDY    64  64 100 SE10      29.88F
$$

WIZ029-030-035-036-043>047-260000-
CENTRAL WISCONSIN

CITY           SKY/WX    TMP DP  RH WIND       PRES   REMARKS
WAUSAU         LGT RAIN  66  32  28 E13G22    29.85F
MOSINEE        CLOUDY    64  63  94 E13G18    29.87F
MARSHFIELD     CLOUDY    68  62  81 SE13      29.84S
STEVENS POINT  CLOUDY    64  62  93 E15G21    29.88F
WAUPACA        HVY RAIN  68  65  91 NW6       29.92R
WAUTOMA        CLOUDY    66  63  88 NE9       29.87F
WISC RAPIDS    CLOUDY    68  62  81 VRB3      29.86F
CAMP DOUGLAS   NOT AVBL
$$

WIZ011>013-019>022-031-037>040-048>050-260000-
NORTHEAST WISCONSIN

CITY           SKY/WX    TMP DP  RH WIND       PRES   REMARKS
ANTIGO         RAIN      64  61  87 S9        29.97R
SHAWANO        LGT RAIN  69  59  72 E8        29.94S
OCONTO         CLOUDY    61  60  97 E9        29.96R
STURGEON BAY   NOT AVBL
GREEN BAY      CLOUDY    63  59  87 NE13      29.95R
MANITOWOC      NOT AVBL
APPLETON       LGT RAIN  66  57  72 E8        29.90F
CLINTONVILLE   LGT RAIN  64  59  82 E3        29.94R
OSHKOSH        LGT RAIN  64  58  80 E13       29.88F
$$

WIZ032>034-041-042-053>061-260000-
SOUTHWEST WISCONSIN

CITY           SKY/WX    TMP DP  RH WIND       PRES   REMARKS
LA CROSSE      MOSUNNY   79  63  57 SW15      29.80F HX  80
SPARTA         RAIN      75  67  78 W7        29.84R
VIROQUA        MOSUNNY   76  62  60 SW15G26   29.84F
BOSCOBEL       PTSUNNY   84  64  50 SW9G20    29.81S HX  85
PRAIRIE DU CHI CLOUDY    82  58  45 S10       29.81F HX  82
PLATTEVILLE    CLOUDY    83  61  47 SW17      29.84S HX  83
$$

WIZ056-057-062-063-064-067-068-260000-
SOUTH CENTRAL WISCONSIN

CITY           SKY/WX    TMP DP  RH WIND       PRES   REMARKS
REEDSBURG      PTSUNNY   81  62  52 SW10G17   29.82F HX  82
BARABOO/DELLS  CLOUDY    79  62  56 S7        29.82F HX  80
LONE ROCK      CLOUDY    79  61  53 S8        29.82S HX  80
MINERAL POINT  CLOUDY    81  61  50 SW9       29.85S HX  81
MADISON        CLOUDY    76  67  73 E9        29.83F
MIDDLETON      CLOUDY    84  60  43 S9        29.83F HX  84
WATERTOWN      CLOUDY    74  66  75 E10       29.87F THUNDER
MONROE         CLOUDY    81  63  54 S14       29.85S HX  82
JANESVILLE     PTSUNNY   79  63  57 SE14G20   29.86S HX  80
$$

WIZ051-052-058>065-066-070>072-260000-
SOUTHEAST WISCONSIN

CITY           SKY/WX    TMP DP  RH WIND       PRES   REMARKS
MILWAUKEE      CLOUDY    55  50  83 NE7       29.90F THUNDER
WAUKESHA       LGT RAIN  66  63  88 SE13      29.90F
MILWAUKEE/TIMM RAIN      64  52  63 E5        29.91F
RACINE         LGT RAIN  57  51  80 N5        29.92F
BURLINGTON     LGT RAIN  72  64  76 SE8       29.88F
KENOSHA        TSTM      67  62  84 W10G21    29.93R
FOND DU LAC    CLOUDY    68  63  84 SE9       29.88F
SHEBOYGAN      CLOUDY    54  50  86 NE12      29.93F
WEST BEND      RAIN      64  55  72 E7        29.92S
JUNEAU         CLOUDY    70  67  89 E12       29.88F
$$

LSZ147-162-260000-
LAKE SUPERIOR

STATION/POSITION TIME  TEMP    WIND        PRES    WAVE
                       AIR SEA DIR/SP/G            HT/PER
                 (UTC) (F)     (DEG/KT/KT) (MB)    (FT/S)
W MID LAKE BUOY  2150   41 38   50/ 17/ 21 1014.5F   3/ 4
DEVILS ISLAND    2200   44      50/ 25/ 27 1013.9F
PORT WING        2215   41      10/ 25/ 37 1015.2
SAXON HARBOR     2200   47     360/  7/  8 1011.9F
$$

LMZ867-665-643>646-260000-
LAKE MICHIGAN

STATION/POSITION TIME  TEMP    WIND        PRES    WAVE
                       AIR SEA DIR/SP/G            HT/PER
                 (UTC) (F)     (DEG/KT/KT) (MB)    (FT/S)
CHAMBERS ISLAND  2200   59      40/ 12/ 17 1014.9F
N MID LAKE BUOY  2150   49 45   50/ 10/ 10 1014.8F   1
NORTHPORT PIER   2200   55      90/  6/ 13 1014.9F
SISTER BAY       2220   63      70/ 11/ 22   N/A
ALGOMA LAKESHORE 2117           60/ 21/ 25   N/A
KEWAUNEE LAKESHO 2200           30/  7/ 10 1014.2F
SHEBOYGAN LAKESH 2200   48     360/ 12/ 13 1014.6F
PORT WASHINGTON  2240   54      50/  9/ 11 1014.2F
S MID LAKE BUOY  2150   57 53   80/  6/  6 1012.6F   0
KENOSHA   LAKESH 2200   53      10/  6/  8 1012.9F
$$

TC  - TEMPERATURE IN CELSIUS
VSB - VISIBILITY IN STATUTE MILES
WCI - WIND CHILL INDEX
HX  - HEAT INDEX





USA.gov is the U.S. government's official web portal to all federal, state and local government web resources and services.